Overview Statistics Trail Chart Weather Telemetry Raw packets
 

This is the latest recevied weather packets stored in our database for station/object OE6JUE. If no packets are shown the sender has not sent any weather packets the latest 10 day(s).

<< 1 2 3 4 >>
Time Temp. Humidity Pressure Rain* Wind** Luminosity Snow
1788700141 28.33° C 37% 1026 hPa 0 mm - - -
1788699842 28.89° C 37% 1025.9 hPa 0 mm - - -
1788699542 28.89° C 36% 1026.1 hPa 0 mm - - -
1788699242 28.89° C 37% 1025.9 hPa 0 mm - - -
1788698942 28.33° C 37% 1026.1 hPa 0 mm - - -
1788698642 28.33° C 38% 1026.1 hPa 0 mm - - -
1788698341 27.78° C 37% 1026.1 hPa 0 mm - - -
1788698042 28.33° C 39% 1026.3 hPa 0 mm - - -
1788697742 27.78° C 40% 1026.2 hPa 0 mm - - -
1788697442 27.78° C 40% 1026.3 hPa 0 mm - - -
1788697142 27.22° C 42% 1026.2 hPa 0 mm - - -
1788696841 27.22° C 44% 1026.3 hPa 0 mm - - -
1788696541 27.22° C 44% 1026.3 hPa 0 mm - - -
1788696241 26.67° C 46% 1026.3 hPa 0 mm - - -
1788695941 26.67° C 44% 1026.4 hPa 0 mm - - -
1788695641 26.67° C 43% 1026.5 hPa 0 mm - - -
1788695342 26.67° C 44% 1026.5 hPa 0 mm - - -
1788695041 26.11° C 44% 1026.4 hPa 0 mm - - -
1788694741 26.67° C 44% 1026.6 hPa 0 mm - - -
1788694441 26.11° C 46% 1026.5 hPa 0 mm - - -
1788694141 26.11° C 45% 1026.6 hPa 0 mm - - -
1788693841 26.11° C 45% 1026.7 hPa 0 mm - - -
1788693542 26.11° C 46% 1026.7 hPa 0 mm - - -
1788693241 25.56° C 45% 1026.8 hPa 0 mm - - -
1788692941 25.56° C 47% 1026.8 hPa 0 mm - - -

* Rain latest hour (hover to see other rain measurements)
** Current wind speed in m/s (hover to see current wind gust speed)